{"data":{"norad_id":56420,"epoch":"2026-09-19T23:23:26.317824Z","epoch_age_seconds":157446,"freshness":"FRESH","line1":"1 56420U 23061AY  26262.97461016 -.00000240  00000+0  81521-6 0  9990","line2":"2 56420  43.0040 162.2828 0001557 278.0548  82.0127 15.27573577186678","mean_motion":15.27573577,"eccentricity":0.0001557,"inclination_deg":43.004,"raan_deg":162.2828,"arg_perigee_deg":278.0548,"mean_anomaly_deg":82.0127,"bstar":8.1521e-7,"rev_number":18667,"period_min":94.267145077752,"perigee_km":482.00003921,"apogee_km":484.13661854941,"semimajor_km":6861.2053288797,"source":"CELESTRAK","updated_at":"2026-09-21T09:00:33.438668Z"}}